Regional Weather Roundup
Issued by NWS

Home | Current Version | Previous Version | Graphics & Text | Print | Product List | Glossary Off
Versions: 1 2 3 4 5 6 7 8 9 10 11 12 13 14 15 16 17 18 19 20 21 22 23 24 25 26 27 28 29 30 31 32 33 34 35 36 37 38 39 40 41 42 43 44 45 46 47 48 49 50

000
ASUS43 KMPX 200601
RWRMN
WEATHER ROUNDUP FOR MINNESOTA
NATIONAL WEATHER SERVICE TWIN CITIES/CHANHASSEN MN
100 AM CDT MON OCT 20 2014


NOTE: "FAIR" INDICATES FEW OR NO CLOUDS BELOW 12,000 FEET WITH NO
SIGNIFICANT WEATHER AND/OR OBSTRUCTIONS TO VISIBILITY. N/A MEANS
CURRENT SKY AND/OR WEATHER CONDITIONS ARE NOT AVAILABLE.

MNZ060>063-068>070-200700-
   Twin Cities Metro

CITY           SKY/WX    TMP DP  RH WIND       PRES   REMARKS
TWIN CITIES    CLEAR     53  42  66 NW9       29.88R
6HR MIN TEMP:  53; 6HR MAX TEMP:  64;

ST PAUL        CLEAR     53  43  68 NW10      29.88R
CRYSTAL        CLEAR     53  42  66 NW9       29.87R
BLAINE         CLEAR     54  43  66 NW8       29.88R
LAKEVILLE      CLEAR     54  43  66 NW8       29.88R
EDEN PRAIRIE   CLEAR     55  43  63 NW9       29.87R
6HR MIN TEMP:  55; 6HR MAX TEMP:  63;

SOUTH ST PAUL  CLEAR     56  42  60 NW13G18   29.87R
LAKE ELMO      FAIR      52  43  71 NW8       29.87R
$$
MNZ001>005-007-008-013>017-022>024-027-028-200700-
   Northwest Minnesota

CITY           SKY/WX    TMP DP  RH WIND       PRES   REMARKS
BEMIDJI        CLEAR     39  36  89 W6        29.89R
HALLOCK        CLEAR     43  37  81 NW8       29.94R
ROSEAU         CLEAR     43  37  81 W6        29.91R
WARROAD        CLEAR     45  41  87 W8        29.91R
THIEF RVR FALL CLEAR     45  37  76 NW7       29.92R
CROOKSTON      CLEAR     43  37  81 NW5       29.94R
FOSSTON        CLEAR     39  36  87 CALM      29.92R
DETROIT LAKES  CLEAR     45  41  87 CALM      29.93R
MOORHEAD       CLEAR     46  41  81 NW5       29.94R
PARK RAPIDS    CLEAR     40  37  89 NW9       29.90R
MAHNOMEN       FAIR      44  38  81 W6        29.91R
$$
MNZ006-009>011-018-025>026-200700-
   North Central Minnesota

CITY           SKY/WX    TMP DP  RH WIND       PRES   REMARKS
BAUDETTE       CLEAR     48  42  80 NW7       29.88R
FLAG ISLAND    CLEAR     48  43  81 N12       29.87R
INTL FALLS     MOCLDY    39  37  92 CALM      29.85R
6HR MIN TEMP:  36; 6HR MAX TEMP:  49;

WASKISH        CLEAR     45  43  93 CALM      29.88R
BIG FORK       MOCLDY    48  41  76 CALM      29.86R
LONGVILLE      CLEAR     43  41  93 W3        29.88R
GRAND RAPIDS   PTCLDY    46  39  76 NW7       29.86R
CRANE LAKE     CLOUDY    46  41  81 N6        29.85R
ORR            PTCLDY    46  39  76 CALM      29.82R
COOK           PTCLDY    45  41  87 CALM      29.84R
WALKER         FAIR      43  39  86 W5        29.88R
$$
MNZ012-019>021-037-200700-
   Northeast Minnesota

CITY           SKY/WX    TMP DP  RH WIND       PRES   REMARKS
DULUTH         PTCLDY    50  40  68 NW12      29.81S
6HR MIN TEMP:  50; 6HR MAX TEMP:  58;

ELY            CLOUDY    48  39  71 N3        29.81R
HIBBING        MOCLDY    49  40  71 NW9       29.83S
EVELETH        MOCLDY    50  41  71 NW5       29.84R
DULUTH HARBOR  PTCLDY    54  45  71 NW3       29.83R
TWO HARBORS    CLEAR     52  32  46 CALM      29.79R
SILVER BAY     CLEAR     50  41  71 CALM      29.78R
GRAND MARAIS     N/A     50  42  74 CALM      29.78R
G MARAIS ARPRT CLOUDY    43  37  81 NW9       29.77R
$$
MNZ029>031-032-039>041-046>048-054>057-064-200700-
   West Central Minnesota

CITY           SKY/WX    TMP DP  RH WIND       PRES   REMARKS
FERGUS FALLS   CLEAR     46  36  66 W5        29.95R
WHEATON        CLEAR     45  37  76 W5        29.97R
MORRIS         CLEAR     41  36  81 W6        29.93R
ALEXANDRIA     CLEAR     46  40  79 W8        29.94R
ELBOW LAKE     FAIR      45  38  75 W5        29.93R
WADENA         CLEAR     45  39  81 W8        29.92R
GLENWOOD       CLEAR     46  39  76 NW7       29.93R
APPLETON       CLEAR     43  37  81 W6        29.95R
BENSON         CLEAR     39  36  87 NW3       29.94R
ORTONVILLE     CLEAR     48  37  66 W6        29.95R
MADISON        CLEAR     45  37  76 W8        29.96R
WILLMAR        FAIR      48  37  66 W6        29.95R
$$
MNZ033>034-036-042>043-049>051-058-059-200700-
   Central Minnesota

CITY           SKY/WX    TMP DP  RH WIND       PRES   REMARKS
ST CLOUD       CLEAR     50  41  71 NW6       29.90R
6HR MIN TEMP:  50; 6HR MAX TEMP:  63;

SAUK CENTRE    FAIR      46  40  81 W3        29.92R
PAYNESVILLE    CLEAR     41  38  89 SW6       29.92R
AITKIN         CLEAR     43  36  75 CALM      29.86R
PINE RIVER     CLEAR     41  37  87 CALM      29.92R
BRAINERD       PTCLDY    47  41  80 W5        29.89S
STAPLES        CLEAR     43  39  87 W6        29.90R
LONG PRAIRIE   MOCLDY    48  41  76 W3        29.92R
LITTLE FALLS   CLEAR     45  37  76 CALM      29.90R
LITCHFIELD     CLEAR     52  43  71 NW5       29.92R
BUFFALO        CLEAR     52  41  66 NW5       29.90R
MAPLE LAKE     CLEAR     52  44  74 NW6       29.90R
$$
MNZ037-044-045-052-053-200700-
   East Central Minnesota

CITY           SKY/WX    TMP DP  RH WIND       PRES   REMARKS
PRINCETON      CLEAR     48  43  81 W3        29.89R
MORA           CLEAR     46  41  81 CALM      29.89R
CAMBRIDGE      CLEAR     52  39  62 CALM      29.86R
RUSH CITY      PTCLDY    51  42  71 NW3       29.87R
MOOSE LAKE     CLEAR     48  41  76 NW5       29.83R
HINCKLEY       FAIR      50  43  76 NW3       29.86R
CLOQUET        CLEAR     48  39  71 W7        29.83R
MCGREGOR       PTCLDY    46  41  81 W5        29.87R
$$
MNZ071>073-080-081-089-090-097-098-200700-
   Southwest Minnesota

CITY           SKY/WX    TMP DP  RH WIND       PRES   REMARKS
MONTEVIDEO     CLEAR     46  39  76 NW7       29.96R
GRANITE FALLS  CLEAR     40  35  83 CALM      29.97R
CANBY          CLEAR     46  39  75 W5        29.98R
MARSHALL       CLEAR     45  34  65 W9        29.96R
REDWOOD FALLS  CLEAR     54  41  61 NW8       29.94R
OLIVIA         CLEAR     50  41  71 NW5       29.93R
PIPESTONE      CLEAR     50  37  62 CALM      29.98R
WINDOM         CLEAR     50  39  66 NW8       29.95R
WORTHINGTON    CLEAR     46  37  71 NW7       29.98R
JACKSON        CLEAR     50  37  62 NW6       29.96R
TRACY          CLEAR     51  39  64 NW6       29.97R
SLAYTON        CLEAR     44  37  76 W7        29.98R
$$
MNZ065>067-074>077-082>085-091>093-200700-
   South Central Minnesota

CITY           SKY/WX    TMP DP  RH WIND       PRES   REMARKS
MANKATO        CLEAR     54  37  54 NW9       29.91R
NEW ULM        CLEAR     52  43  71 NW10      29.92R
ST JAMES       CLEAR     48  39  71 W8        29.94R
FAIRMONT       CLEAR     50  36  57 NW9       29.93R
GLENCOE        CLEAR     53  44  71 NW7       29.90R
FARIBAULT      CLEAR     52  43  71 NW7       29.89R
OWATONNA       CLEAR     50  41  71 W8        29.89R
WASECA         CLEAR     50  37  62 NW6       29.92R
ALBERT LEA     CLEAR     55  43  62 NW8       29.89R
$$
MNZ078>079-086>088-094>096-200700-
   Southeast Minnesota

CITY           SKY/WX    TMP DP  RH WIND       PRES   REMARKS
ROCHESTER      CLEAR     50  42  74 NW8       29.86R
6HR MIN TEMP:  50; 6HR MAX TEMP:  57;

RED WING       CLEAR     55  43  62 NW5       29.84R
STANTON        CLEAR     51  42  72 W7        29.86R
DODGE CENTER   CLEAR     52  43  71 NW12      29.87R
WINONA         CLEAR     50  43  76 CALM      29.81R
AUSTIN         CLEAR     52  41  66 NW7       29.87R
PRESTON        CLEAR     51  42  70 NW13      29.84R
$$
ABBREVIATIONS USED IN REMARKS
   TC - TEMPERATURES IN CELSIUS
  WCI - WIND CHILL INDEX
   HX - HEAT INDEX
  VSB - VISIBILITY
$$



USA.gov is the U.S. government's official web portal to all federal, state and local government web resources and services.